TimeCST,TemperatureF,Dew PointF,Humidity,Sea Level PressureIn,VisibilityMPH,Wind Direction,Wind SpeedMPH,Gust SpeedMPH,PrecipitationIn,Events,Conditions,WindDirDegrees,DateUTC
12:15 AM,27.5,21.9,80,29.96,10.0,ENE,6.9,-,N/A,,Overcast,70,2013-03-05 06:15:00
12:35 AM,27.5,22.1,80,29.95,7.0,ENE,8.1,-,N/A,,Mostly Cloudy,70,2013-03-05 06:35:00
12:55 AM,27.5,22.8,83,29.96,3.0,ENE,6.9,-,N/A,Snow,Light Snow,70,2013-03-05 06:55:00
1:15 AM,27.5,23.4,84,29.96,2.5,ENE,6.9,-,N/A,Snow,Light Snow,70,2013-03-05 07:15:00
1:35 AM,25.5,22.3,88,29.96,1.2,East,6.9,-,N/A,Snow,Light Snow,80,2013-03-05 07:35:00
1:55 AM,25.2,22.5,89,29.95,1.5,East,6.9,-,N/A,Snow,Light Snow,80,2013-03-05 07:55:00
2:15 AM,25.2,22.6,90,29.94,2.0,East,6.9,-,N/A,Snow,Light Snow,80,2013-03-05 08:15:00
2:35 AM,25.2,22.6,90,29.93,2.5,ENE,5.8,-,N/A,Snow,Light Snow,70,2013-03-05 08:35:00
2:55 AM,25.2,22.6,90,29.93,3.0,East,4.6,-,N/A,Snow,Light Snow,80,2013-03-05 08:55:00
3:15 AM,25.2,22.5,89,29.93,2.0,ENE,4.6,-,N/A,Snow,Light Snow,70,2013-03-05 09:15:00
3:35 AM,25.2,22.6,90,29.93,1.2,NE,3.5,-,N/A,Snow,Light Snow,50,2013-03-05 09:35:00
3:55 AM,25.2,22.6,90,29.93,1.2,Calm,Calm,-,N/A,Snow,Light Snow,0,2013-03-05 09:55:00
4:15 AM,25.2,22.8,91,29.93,1.8,Calm,Calm,-,0.01,Snow,Light Snow,0,2013-03-05 10:15:00
4:55 AM,25.2,23.0,91,29.93,1.5,NNW,3.5,-,0.02,Snow,Light Snow,340,2013-03-05 10:55:00
5:15 AM,25.2,23.0,91,29.93,1.5,North,3.5,-,0.01,Snow,Light Snow,360,2013-03-05 11:15:00
5:55 AM,25.2,23.0,91,29.94,0.8,NNW,4.6,-,0.02,Snow,Snow,330,2013-03-05 11:55:00
6:15 AM,25.2,23.0,91,29.94,1.2,NNW,4.6,-,0.01,Snow,Light Snow,330,2013-03-05 12:15:00
6:35 AM,25.2,23.0,91,29.95,1.2,NNW,3.5,-,0.01,Snow,Light Snow,340,2013-03-05 12:35:00
7:15 AM,25.2,23.0,91,29.95,0.8,Calm,Calm,-,N/A,Snow,Light Snow,0,2013-03-05 13:15:00
7:35 AM,25.2,23.0,91,29.95,1.2,Calm,Calm,-,N/A,Snow,Light Snow,0,2013-03-05 13:35:00
7:55 AM,25.2,23.0,91,29.94,1.0,NNW,3.5,-,N/A,Snow,Light Snow,330,2013-03-05 13:55:00
8:15 AM,25.2,22.6,90,29.94,1.0,NW,3.5,-,N/A,Snow,Light Snow,310,2013-03-05 14:15:00
8:35 AM,27.5,24.8,90,29.95,1.0,WNW,5.8,-,N/A,Snow,Light Snow,300,2013-03-05 14:35:00
8:55 AM,27.5,24.6,89,29.94,1.0,WNW,5.8,-,N/A,Snow,Light Snow,300,2013-03-05 14:55:00
9:15 AM,27.5,24.1,87,29.95,1.2,WNW,8.1,-,N/A,Snow,Light Snow,300,2013-03-05 15:15:00
9:35 AM,27.5,23.7,86,29.94,2.5,WNW,8.1,-,N/A,Snow,Light Snow,300,2013-03-05 15:35:00
9:55 AM,27.5,23.0,83,29.94,4.0,WNW,9.2,-,N/A,,Mostly Cloudy,300,2013-03-05 15:55:00
10:15 AM,27.5,23.2,84,29.94,3.0,WNW,10.4,-,N/A,,Overcast,300,2013-03-05 16:15:00
10:35 AM,27.5,22.6,82,29.94,3.0,NW,13.8,-,N/A,,Haze,310,2013-03-05 16:35:00
10:55 AM,28.9,23.0,78,29.93,5.0,NW,12.7,-,N/A,Snow,Light Snow,310,2013-03-05 16:55:00
11:15 AM,28.9,23.4,80,29.94,7.0,WNW,15.0,-,N/A,Snow,Light Snow,300,2013-03-05 17:15:00
11:35 AM,28.9,23.0,78,29.93,7.0,WNW,13.8,-,N/A,Snow,Light Snow,300,2013-03-05 17:35:00
11:55 AM,30.2,23.7,77,29.94,5.0,NNW,9.2,-,N/A,Snow,Light Snow,330,2013-03-05 17:55:00
12:15 PM,31.1,23.2,72,29.93,5.0,NNW,13.8,17.3,N/A,Snow,Light Snow,340,2013-03-05 18:15:00
12:35 PM,32.4,24.3,72,29.94,5.0,NNW,13.8,19.6,N/A,,Haze,330,2013-03-05 18:35:00
12:55 PM,32.4,24.8,74,29.94,5.0,North,10.4,17.3,N/A,,Haze,350,2013-03-05 18:55:00
1:15 PM,30.2,22.6,73,29.95,5.0,NNW,12.7,18.4,N/A,Snow,Light Snow,340,2013-03-05 19:15:00
1:35 PM,32.4,24.6,73,29.95,5.0,NNW,15.0,-,N/A,,Haze,340,2013-03-05 19:35:00
1:55 PM,30.2,22.3,72,29.95,5.0,NNW,17.3,23.0,N/A,,Haze,330,2013-03-05 19:55:00
2:15 PM,30.2,21.4,70,29.96,10.0,NNW,11.5,19.6,N/A,,Clear,340,2013-03-05 20:15:00
2:35 PM,30.2,21.2,69,29.97,10.0,NNW,13.8,21.9,N/A,,Clear,330,2013-03-05 20:35:00
2:55 PM,32.4,23.0,68,29.97,10.0,NNW,15.0,20.7,N/A,,Scattered Clouds,330,2013-03-05 20:55:00
3:15 PM,32.4,23.0,68,29.98,10.0,NNW,16.1,20.7,N/A,,Mostly Cloudy,330,2013-03-05 21:15:00
3:35 PM,32.4,22.8,68,29.99,10.0,NNW,16.1,23.0,N/A,,Mostly Cloudy,330,2013-03-05 21:35:00
3:55 PM,30.2,20.3,67,29.99,10.0,NNW,18.4,25.3,N/A,,Scattered Clouds,330,2013-03-05 21:55:00
4:15 PM,30.2,20.7,68,30.01,10.0,NNW,16.1,21.9,N/A,,Scattered Clouds,340,2013-03-05 22:15:00
4:35 PM,28.9,20.1,70,30.02,10.0,NNW,16.1,21.9,N/A,,Mostly Cloudy,330,2013-03-05 22:35:00
4:55 PM,27.5,19.6,72,30.03,10.0,NNW,18.4,23.0,N/A,,Overcast,330,2013-03-05 22:55:00
5:15 PM,27.5,19.6,72,30.05,10.0,NNW,17.3,26.5,N/A,,Overcast,340,2013-03-05 23:15:00
5:35 PM,27.5,20.1,74,30.06,10.0,NNW,18.4,27.6,N/A,,Overcast,340,2013-03-05 23:35:00
5:55 PM,27.5,20.1,74,30.07,10.0,NNW,16.1,23.0,N/A,,Overcast,340,2013-03-05 23:55:00
6:15 PM,27.5,20.3,74,30.08,10.0,NNW,16.1,25.3,N/A,,Overcast,340,2013-03-06 00:15:00
6:35 PM,27.5,20.5,75,30.09,10.0,NNW,17.3,24.2,N/A,,Overcast,340,2013-03-06 00:35:00
6:55 PM,27.5,20.8,76,30.10,10.0,NNW,17.3,26.5,N/A,,Overcast,340,2013-03-06 00:55:00
7:15 PM,27.5,21.2,77,30.11,10.0,NNW,16.1,25.3,N/A,,Overcast,340,2013-03-06 01:15:00
7:35 PM,27.5,21.7,79,30.11,10.0,NNW,15.0,24.2,N/A,,Overcast,340,2013-03-06 01:35:00
7:55 PM,27.5,21.9,80,30.13,10.0,NNW,16.1,23.0,N/A,,Overcast,330,2013-03-06 01:55:00
8:15 PM,27.5,22.5,81,30.14,10.0,NNW,15.0,21.9,N/A,,Overcast,340,2013-03-06 02:15:00
8:35 PM,27.5,22.8,83,30.15,10.0,NNW,12.7,19.6,N/A,,Mostly Cloudy,340,2013-03-06 02:35:00
8:55 PM,27.5,22.8,83,30.15,10.0,NNW,13.8,19.6,N/A,,Overcast,340,2013-03-06 02:55:00
9:15 PM,27.5,22.8,83,30.16,10.0,NNW,12.7,17.3,N/A,,Overcast,340,2013-03-06 03:15:00
9:35 PM,27.5,22.8,83,30.18,10.0,NNW,11.5,19.6,N/A,,Overcast,340,2013-03-06 03:35:00
9:55 PM,27.5,22.1,80,30.18,10.0,NNW,10.4,-,N/A,,Overcast,340,2013-03-06 03:55:00
10:15 PM,25.3,20.5,82,30.19,10.0,NNW,11.5,16.1,N/A,,Overcast,330,2013-03-06 04:15:00
10:35 PM,25.2,20.3,82,30.20,10.0,NNW,11.5,-,N/A,,Scattered Clouds,340,2013-03-06 04:35:00
10:55 PM,25.2,20.1,81,30.21,10.0,NNW,12.7,-,N/A,,Clear,340,2013-03-06 04:55:00
11:15 PM,24.4,19.0,80,30.21,10.0,North,11.5,-,N/A,,Mostly Cloudy,350,2013-03-06 05:15:00
11:35 PM,23.9,18.1,79,30.21,10.0,North,12.7,-,N/A,,Overcast,350,2013-03-06 05:35:00
11:55 PM,22.6,16.5,77,30.21,10.0,NNW,9.2,-,N/A,,Scattered Clouds,340,2013-03-06 05:55:00